"Pseudo-MPEC" for P117VAL

Created 2020 Oct 18 13:07:30 UT using Find_Orb

Click here for an explanation of pseudo-MPECs

 
 Astrometry: 
     P117VAL  C2020 10 15hX%,+Scgd6khQmgO-xoAstrometry+Y]redacted;3x-C\$1$\6dF51
     P117VAL  C2020 10 15gCNB182Vc$nlBUDlclick:XONV7Kl;\hereJwL4?Ja[UMk5ko]]8F51
     P117VAL  C2020 10 15m\*-:35JJ`?v@=forIT6sqQ.$yooIS-;Fiy-]2C-7explanationF51
     P117VAL  C2020 10 15)#VZCM)Q=Vnd\M=Rvf_)'_LZl/G5p^sMnSpv\98XbV;5sm1:Rou7F51
     P117VAL KC2020 10 16.29428803 03 40.04 -19 45 30.7    ~AG7b 20.62GVNEOCPI52
     P117VAL KC2020 10 16.29680503 03 38.75 -19 45 12.6    ~AG7b 20.83GVNEOCPI52
     P117VAL KC2020 10 16.29932203 03 37.47 -19 44 55.2    ~AG7b 21.74GVNEOCPI52
     P117VAL KC2020 10 16.30184003 03 36.24 -19 44 37.7    ~AG7b 20.65GVNEOCPI52
     P117VAL KC2020 10 18.40820602 48 57.38 -16 02 52.9    ~AIAM 20.95GVNEOCPI52
     P117VAL KC2020 10 18.41127602 48 56.21 -16 02 36.6    ~AIAM 21.76GVNEOCPI52
     P117VAL KC2020 10 18.41434702 48 55.06 -16 02 18.3    ~AIAM 20.60GVNEOCPI52

Station data:
(F51) Pan-STARRS 1, Haleakala  (N20.707235 W156.255910)  US/Hawaii.
   Observers N. Primak, A. Schultz, S. Watters, J. Thiel, T. Goggia. Measurer
   PS1 Science Consortium. 1.8-m Ritchey-Chrétien + CCD.
(I52) Steward Observatory, Mt. Lemmon Station  (N32.442547 W110.788920)
   US/Arizona.  Observers T. A. Pruyne, B. M. Africano, E. J. Christensen, G.
   A. Farneth, D. C. Fuls, A. R. Gibbs, A. D. Grauer, H. Gröller, J. A.
   Johnson, R. A. Kowalski, S. M. Larson, G. J. Leonard, D. Rankin, R. L.
   Seaman, F. C. Shelly. 1.0-m reflector + CCD.

Orbital elements:  P117VAL
   Perihelion 2020 Aug 22.715988 +/- 0.178 TT = 17:11:01 (JD 2459084.215988)
Epoch 2020 Oct 18.0 TT = JDT 2459140.5   Earth MOID: 0.0570   Ve: 0.0197
M  19.98174334 +/- 0.57             Ma: 0.0586                AutoNEOCP
n   0.35501632 +/- 0.00912          Peri.  187.82230 +/- 0.43
a   1.97531865 +/- 0.0338           Node   113.59364 +/- 0.46
e   0.6354959 +/- 0.00733           Incl.    3.53030 +/- 0.035
P   2.78                   H 24.3   G  0.15   U  9.6  
q 0.72001170 +/- 0.00219    Q 3.23062559 +/- 0.0711
From 11 observations 2020 Oct. 15-18; mean residual 0".32
Residuals in arcseconds: 
201015 F51  .14-  .27+    201016 I52  .25-  .16+    201018 I52  .04+  .23+    
201015 F51  .10+  .14-    201016 I52  .26-  .41+    201018 I52  .10-  .67-    
201015 F51  .33-  .15+    201016 I52  .12-  .05-    201018 I52  .04+  .42+    
201015 F51  .31+  .37-    201016 I52  .72+  .41-    

Ephemerides (geocentric):
Date (UTC) HH   RA              Dec         delta   r     elong  mag " sig PA
---- -- -- --  -------------   -----------  ------ ------ -----  --- ---- ---
2020 10 18 13  02 48 11.738   -15 49 48.16  .13517 1.1136 148.5 21.5 .476  29
2020 10 18 14  02 47 57.235   -15 46 00.34  .13554 1.1141 148.6 21.5 .469  32
2020 10 18 15  02 47 42.814   -15 42 13.59  .13591 1.1145 148.6 21.5 .464  35
2020 10 18 16  02 47 28.476   -15 38 27.90  .13628 1.1149 148.7 21.5 .460  38
2020 10 18 17  02 47 14.218   -15 34 43.28  .13664 1.1153 148.8 21.5 .457  42
2020 10 18 18  02 47 00.041   -15 30 59.71  .13701 1.1157 148.9 21.5 .456  45
2020 10 18 19  02 46 45.944   -15 27 17.19  .13738 1.1162 149.0 21.5 .457  48
2020 10 18 20  02 46 31.925   -15 23 35.70  .13775 1.1166 149.1 21.5 .459  52
2020 10 18 21  02 46 17.986   -15 19 55.25  .13812 1.1170 149.2 21.5 .463  55
2020 10 18 22  02 46 04.124   -15 16 15.83  .13849 1.1174 149.3 21.5 .469  59
2020 10 18 23  02 45 50.339   -15 12 37.43  .13886 1.1178 149.4 21.5 .476  62
2020 10 19 00  02 45 36.631   -15 09 00.04  .13923 1.1182 149.5 21.5 .485  65
2020 10 19 01  02 45 22.999   -15 05 23.66  .13960 1.1187 149.6 21.5 .496  68
2020 10 19 02  02 45 09.442   -15 01 48.28  .13997 1.1191 149.7 21.5 .508  71
2020 10 19 03  02 44 55.960   -14 58 13.89  .14034 1.1195 149.8 21.5 .522  74
2020 10 19 04  02 44 42.553   -14 54 40.49  .14071 1.1199 149.8 21.5 .538  77
2020 10 19 05  02 44 29.219   -14 51 08.08  .14108 1.1203 149.9 21.5 .554  80
2020 10 19 06  02 44 15.958   -14 47 36.64  .14146 1.1208 150.0 21.5 .572  82
2020 10 19 07  02 44 02.769   -14 44 06.17  .14183 1.1212 150.1 21.5 .591  85
2020 10 19 08  02 43 49.652   -14 40 36.66  .14220 1.1216 150.2 21.5 .611  87
2020 10 19 09  02 43 36.607   -14 37 08.11  .14258 1.1220 150.3 21.5 .632  89
2020 10 19 10  02 43 23.632   -14 33 40.51  .14295 1.1224 150.4 21.5 .655  91
2020 10 19 11  02 43 10.728   -14 30 13.86  .14332 1.1228 150.5 21.6 .678  93
2020 10 19 12  02 42 57.893   -14 26 48.14  .14370 1.1233 150.5 21.6 .701  94
2020 10 19 13  02 42 45.128   -14 23 23.36  .14407 1.1237 150.6 21.6 .726  96
2020 10 19 14  02 42 32.431   -14 19 59.51  .14445 1.1241 150.7 21.6 .751  98
2020 10 19 15  02 42 19.802   -14 16 36.57  .14482 1.1245 150.8 21.6 .777  99
2020 10 19 16  02 42 07.240   -14 13 14.56  .14520 1.1249 150.9 21.6 .804 100
2020 10 19 17  02 41 54.746   -14 09 53.45  .14558 1.1254 151.0 21.6 .831 102
2020 10 19 18  02 41 42.318   -14 06 33.25  .14595 1.1258 151.0 21.6 .859 103
2020 10 19 19  02 41 29.956   -14 03 13.94  .14633 1.1262 151.1 21.6 .887 104
2020 10 19 20  02 41 17.659   -13 59 55.53  .14671 1.1266 151.2 21.6 .916 105
2020 10 19 21  02 41 05.428   -13 56 38.01  .14708 1.1270 151.3 21.6 .945 106
2020 10 19 22  02 40 53.261   -13 53 21.36  .14746 1.1275 151.4 21.6 .974 107
2020 10 19 23  02 40 41.158   -13 50 05.59  .14784 1.1279 151.4 21.6 1.00 108
2020 10 20 00  02 40 29.119   -13 46 50.70  .14822 1.1283 151.5 21.6 1.03 108
2020 10 20 01  02 40 17.142   -13 43 36.66  .14860 1.1287 151.6 21.6 1.06 109
2020 10 20 02  02 40 05.229   -13 40 23.49  .14898 1.1291 151.7 21.6 1.10 110
2020 10 20 03  02 39 53.377   -13 37 11.17  .14936 1.1295 151.8 21.6 1.13 111
2020 10 20 04  02 39 41.587   -13 33 59.70  .14974 1.1300 151.8 21.6 1.16 111
2020 10 20 05  02 39 29.858   -13 30 49.08  .15012 1.1304 151.9 21.6 1.19 112
2020 10 20 06  02 39 18.190   -13 27 39.29  .15050 1.1308 152.0 21.6 1.22 113
2020 10 20 07  02 39 06.582   -13 24 30.33  .15088 1.1312 152.1 21.6 1.25 113
2020 10 20 08  02 38 55.034   -13 21 22.20  .15126 1.1316 152.2 21.6 1.29 114
2020 10 20 09  02 38 43.546   -13 18 14.90  .15164 1.1321 152.2 21.6 1.32 114
2020 10 20 10  02 38 32.116   -13 15 08.41  .15202 1.1325 152.3 21.6 1.35 115
2020 10 20 11  02 38 20.745   -13 12 02.73  .15240 1.1329 152.4 21.6 1.38 115
2020 10 20 12  02 38 09.432   -13 08 57.86  .15279 1.1333 152.5 21.7 1.42 115